Location: Unspecified
(50.7693°N, 0.0000°E)
Time: 02:36:59
(UTC+00:00)

SR - Pass Details

Date: 26 June 2019
Orbit: 580 x 876 km, 66.7° (Epoch: 22 July)

Event Time Altitude Azimuth Distance (km) Brightness Sun altitude
Rises 03:13:50 0° 216° (SW) 2,789 - -4.8°
Exits shadow 03:15:07 - 217° (SW) 2,261 ? -4.6°
Reaches altitude 10° 03:16:01 10° 217° (SW) 1,895 ? -4.5°
Maximum altitude 03:20:15 88° 306° (NW) 599 ? -4.1°
Drops below altitude 10° 03:24:40 10° 37° (NE) 1,978 ? -3.6°
Sets 03:27:00 0° 38° (NE) 2,922 ? -3.3°
